Location: Broletto
(44.6000°N, 10.5833°E)
Time: 07:43:48
(UTC+00:00)

Cosmos 2082 - Pass Details

Date: 18 April 2021
Orbit: 834 x 855 km, 71.0° (Epoch: 06 May)

Event Time Altitude Azimuth Distance (km) Brightness Sun altitude
Exits shadow 21:39:16 69° 351° (N) 893 3.8 -30.0°
Drops below altitude 10° 21:44:18 10° 23° (NNE) 2,456 6.5 -30.4°
Sets 21:46:46 0° 25° (NNE) 3,396 7.3 -30.6°
